Lid_Strength_Index
-1 -1 -1 -2 -2 -2 -2 -1 -1 -1 -1 -1 -1 -1 -1 -1 -1 1 4 2 0 -1 -0 0 1 1 1 3 3 4 9 10 9 9 8 6 7 6 5 5 4 4 4 3 2
-0 -0 -1 -1 -2 -2 -2 -1 -1 -1 -1 -1 -1 -1 -1 -1 1 3 -0 -0 -0 -1 1 2 3 3 4 4 4 6 9 9 6 6 7 7 6 6 6 6 5 5 3 2 2
0 -0 -0 -1 -1 -1 -1 -1 -1 -1 -1 -1 -1 -1 -1 -1 3 3 -2 -2 -2 -1 1 1 2 3 5 4 5 6 9 6 6 6 5 6 7 6 7 7 6 5 4 3 3
1 0 -0 -1 -1 -1 -1 -1 -1 -1 -1 -1 -1 -1 -1 0 10 1 -1 -2 -2 -1 1 2 4 6 6 7 5 8 6 6 6 6 6 7 5 7 6 5 5 4 3 3 3
1 1 0 -0 -0 -1 -1 -1 -1 -1 -1 -1 -1 -1 0 5 5 -1 -2 -1 -1 0 2 3 5 5 7 7 6 7 6 6 5 6 6 6 6 6 6 5 5 5 4 3 3
1 1 1 0 0 -1 -1 -1 -1 -1 -1 -1 -1 -1 2 8 -0 -1 -1 -0 0 1 2 3 4 3 5 6 7 6 6 6 5 6 6 7 6 6 5 4 4 6 5 4 4
1 1 1 1 -0 -0 -1 -1 -1 -1 -1 -1 -2 -0 4 5 -0 -1 -0 0 0 1 3 2 2 4 4 7 5 6 8 7 6 6 7 6 8 8 5 4 5 4 4 4 4
-0 0 0 0 -0 -1 -1 -1 -1 -1 -1 -1 -1 1 6 -0 -1 0 -0 1 -0 0 1 1 1 4 5 5 7 8 7 11 8 6 6 7 11 6 4 5 5 5 4 3 3
-0 -0 -0 -1 -0 -1 -1 -1 -1 -1 -1 -1 1 3 7 0 2 0 0 3 2 1 1 1 2 5 6 8 10 9 11 10 10 6 7 8 9 6 4 5 5 5 4 4 3
-1 -1 -1 -1 -1 -1 -1 -1 -1 -1 -0 -0 1 6 5 6 2 1 0 1 3 3 5 5 6 8 8 10 14 11 12 10 10 8 7 8 9 7 6 5 5 5 4 4 4
-1 -1 -1 -1 -1 -1 -0 1 4 6 4 7 6 6 5 3 1 3 1 3 3 5 9 7 10 13 10 9 8 8 10 10 8 7 8 9 9 8 7 6 6 5 5 4 4
-1 -1 -1 -1 -2 -1 -0 4 4 3 8 6 5 4 3 2 6 4 1 6 7 10 8 10 13 8 7 8 9 9 11 10 8 7 9 9 9 7 7 7 6 6 6 5 4
-1 -0 -1 -1 -1 -0 2 3 1 1 9 8 6 5 4 3 6 6 4 5 8 9 9 11 9 7 8 10 11 10 11 11 11 9 8 10 11 9 7 6 5 5 5 5 5
-1 -1 -1 -1 1 1 3 0 0 1 12 11 9 6 4 4 8 3 3 5 8 10 9 9 7 8 9 10 10 13 9 10 11 12 15 9 15 9 7 7 7 6 5 5 5
-1 -1 -1 -1 2 3 1 0 1 3 20 9 8 3 4 7 6 6 3 5 9 9 9 11 9 10 11 10 8 11 8 10 10 12 13 13 15 12 8 9 8 7 5 4 4
-1 -1 -1 0 1 1 -1 0 2 14 20 12 8 9 9 7 7 6 7 5 5 8 8 8 7 8 8 8 8 8 10 10 11 12 18 13 13 14 11 9 8 6 5 5 4
-1 -1 -0 -0 4 -1 -0 4 14 18 11 13 12 10 10 10 9 9 10 11 13 15 15 12 11 8 7 10 8 9 12 18 19 19 18 11 12 13 9 8 8 7 6 5 4
-1 -1 -0 -0 -1 -1 2 10 18 13 14 10 10 10 12 9 10 10 11 13 10 10 13 16 17 11 8 9 11 11 12 16 20 18 15 12 15 12 8 6 6 5 5 4 4
-1 1 1 1 -1 0 7 15 15 13 11 12 10 14 13 10 11 11 12 12 10 9 13 15 15 9 8 7 8 12 14 9 14 15 16 13 11 9 8 8 6 6 5 5 4
2 3 3 -0 -1 3 10 13 12 8 8 9 14 12 15 13 12 12 13 10 11 8 7 10 14 11 9 8 8 10 8 16 16 20 20 14 13 13 10 9 7 6 6 5 5
2 7 2 -0 1 7 13 12 11 7 7 10 11 13 12 13 11 12 12 9 9 8 7 8 11 13 11 13 13 13 13 12 12 13 17 17 13 8 8 8 8 7 6 5 5
4 10 2 1 9 9 12 10 8 8 7 8 8 10 11 11 12 12 12 10 7 8 11 9 12 15 14 10 8 9 11 11 15 17 14 15 14 7 7 7 7 6 6 5 5
7 7 2 3 12 12 9 10 9 9 9 9 10 9 8 11 14 11 10 7 7 9 11 10 13 17 16 13 10 13 11 10 10 11 15 17 14 7 7 7 7 7 6 5 5
6 10 7 6 7 10 11 11 12 8 8 8 9 8 10 11 10 12 11 9 7 8 7 8 12 13 16 13 11 13 12 10 11 15 14 14 11 10 8 8 7 6 6 6 5
6 9 7 12 10 10 9 10 12 12 9 7 10 9 10 13 12 13 10 10 8 7 8 10 15 12 11 12 11 12 12 11 12 12 14 12 11 9 8 7 7 6 6 5 6
8 9 7 9 8 9 9 11 11 11 10 11 11 9 9 12 11 13 10 10 11 9 10 9 14 13 14 12 12 13 12 11 11 11 11 10 10 7 6 6 6 6 5 6 7
4 4 6 8 9 10 10 10 11 9 8 8 8 9 10 9 6 6 7 8 8 10 11 12 13 14 17 13 13 16 13 12 10 9 10 12 9 7 7 6 6 5 5 6 6